Regional Weather Roundup
Issued by NWS Lake Charles, LA

Home | Current Version | Previous Version | Text Only | Print | Product List | Glossary On
Versions: 1 2 3 4 5 6 7 8 9 10 11 12 13 14 15 16 17 18 19 20 21 22 23 24 25 26 27 28 29 30 31 32 33 34 35 36 37 38 39 40 41 42 43 44 45 46 47 48 49 50
000
ASUS44 KLCH 031110
RWRLCH
RWRLCH
REGIONAL WEATHER ROUNDUP
NATIONAL WEATHER SERVICE LAKE CHARLES LA
600 AM CDT WED JUN 03 2015

Note: "fair" indicates few or no clouds below 12,000 feet with no
significant weather and/or obstructions to visibility.


ACROSS SOUTHEAST TEXAS

CITY           SKY/WX    TMP DP  RH WIND       PRES   REMARKS
BEAUMONT       CLEAR     69  67  93 N5        29.92S
BEAUMONT CITY    N/A     66  66  99 CALM      29.94R
ORANGE         SUNNY     70  69  96 CALM      29.95R
JASPER         CLEAR     68  66  92 NE3       29.97S
$$

ACROSS CENTRAL LOUISIANA

CITY           SKY/WX    TMP DP  RH WIND       PRES   REMARKS
LEESVILLE      CLEAR     68  63  84 E5        29.95R
FULLERTON        N/A     69  63  81 CALM      29.94R
ALEXANDRIA INT CLEAR     66  64  93 CALM      29.94S
ESLER FIELD    CLEAR     61  60  97 CALM      29.96S
DERIDDER       PTSUNNY   68  65  90 CALM      29.97R
OAKDALE        SUNNY     66  64  94 CALM      29.95S
OPELOUSAS        N/A    N/A N/A N/A NE3       29.94S
$$

ACROSS SOUTHWEST AND SOUTH CENTRAL LOUISIANA

CITY           SKY/WX    TMP DP  RH WIND       PRES   REMARKS
SULPHUR        SUNNY     69  68  96 CALM      29.95R
LAKE CHARLES   CLEAR     69  67  93 NE5       29.93S
CHENNAULT INT  NOT AVBL
CAMERON PHI    PTSUNNY   73  68  83 E5        29.96R
DEQUINCY         N/A     67  67 100 CALM      29.95R
JENNINGS         N/A     69  66  90 CALM      29.94R
LAFAYETTE      CLEAR     68  65  90 NE3       29.93F
NEW IBERIA     CLEAR     71  66  84 NE6       29.94S
ABBEVILLE        N/A     67  66  94 CALM      29.93S
PATTERSON      CLEAR     70  66  88 N3        29.94R
SALT POINT       N/A     71  68  90 CALM      29.91R
$$

SELECTED SITES ACROSS THE REGION

CITY           SKY/WX    TMP DP  RH WIND       PRES   REMARKS
HOUSTON BUSH   PTCLDY    69  68  96 CALM      29.93R
HOUSTON HOBBY  PTCLDY    71  69  93 CALM      29.92R
GALVESTON      CLEAR     77  70  79 W3        29.93S
COLLEGE STAT   CLEAR     70  66  87 CALM      29.93R
CONROE         CLEAR     65  62  90 CALM      29.94R
HUNTSVILLE     CLEAR     68  65  90 CALM      29.94R
LUFKIN         CLEAR     69  64  84 CALM      29.94S
SHREVEPORT     PTCLDY    68  63  84 SE3       29.96R
MONROE         MOCLDY    64  63  96 CALM      29.99R
NATCHEZ MS     CLEAR     63  59  88 CALM      29.98R
BATON ROUGE    CLEAR     67  63  87 CALM      29.95R
N.O. INTL ARPT PTCLDY    76  68  76 NE9       29.92R
SLIDELL        CLOUDY    70  68  93 N3        29.93R
$$

MARINE REPORTS

STATION/POSITION TIME  TEMP    WIND        PRES    VSBY  WAVE
                       AIR SEA DIR/SP/G                  HT/PER
                 (UTC) (F)     (DEG/KT/KT) (MB)    (MI)  (FT/S)
BUOY 30 S HIGH I 1050   80 81  230/  2/  4 1012.8R         1
SEA RIM ST PARK  1100   73     320/  4/  5 1013.7S
PORT ARTHUR      1000      78  270/  3/  5 1013.3R
SABINE PASS N    1000   75 80  310/  2/  4 1013.2S
TEXAS POINT      NOT AVBL
CALCASIEU PASS   1000   75 84   80/  7/  8   N/A
LK CHARLES BEACH 1000   72 79              1013.7F
MARSH ISLAND     1000   79      70/ 14/ 16   N/A           0
FRESH WATER LOCK 1000   74 84   60/  5/  8   N/A
AMERADA PASS     1000   72 77  120/  3/  5 1012.9R
$$


USA.gov is the U.S. government's official web portal to all federal, state and local government web resources and services.